Find Starlink 11503

NORAD ID: 63142 Int'l Des: 2025-043 Owner: SPXS Country: US Constellation: starlink operational
又名: STARLINK-11503 [DTC] celestrak
LEOCIRCULAR

当前视图

正在加载3D地球...

About Starlink 11503

Starlink 11503 (NORAD 63142) is a starlink constellation satellite (v2 mini d2c) launched Mar 3, 2025 by SPXS of US. It operates in LEO, CIRCULAR orbit with a mass of 960.00 kg.

即将过境

Passes for default location (London). Set your location on the main map for personalized predictions.

高度历史

Loading altitude history...

两行轨道根数

1 63142U 25043L 26263.42514094 .00217512 00000-0 16378-2 0 9993
2 63142 43.0007 156.4943 0002649 285.2516 74.8059 15.71082773 89926
Epoch: Sep 20, 2026 • Age: 9 hours

当前状态

高度 358.5 km
远地点 / 近地点 N/A
速度 7.70 km/s
星下点 -20.18°S, 156.98°W
发射日期 Mar 3, 2025
运行时间 1.5 years
类型 internet

技术详情

分类 Payload
质量 960.00 kg
干质量 910.00 kg
长度 0.30 m
跨度 29.00 m
形状 ? Box + pan
制造商 SPXS
平台类型 Starlink V2MD
阶段状态 In Orbit
所有者/国家 SPXS/US

Most Searched